Regional Weather Roundup
Issued by NWS

Home | Current Version | Previous Version | Graphics & Text | Print | Product List | Glossary On
Versions: 1 2 3 4 5 6 7 8 9 10 11 12 13 14 15 16 17 18 19 20 21 22 23 24 25 26 27 28 29 30 31 32 33 34 35 36 37 38 39 40 41 42 43 44 45 46 47 48 49 50
000
ASUS45 KABQ 202210
RWRNM
NEW MEXICO REGIONAL WEATHER ROUNDUP
NATIONAL WEATHER SERVICE ALBUQUERQUE NM
400 PM MDT WED SEP 20 2017

NOTE: "FAIR" MEANS FEW OR NO CLOUDS BELOW 12,000 FEET AGL WITH NO
       SIGNIFICANT WEATHER OR OBSTRUCTIONS TO VISION.

      THIS PRODUCT IS RELEASED AS TWO VERSIONS.  ONE VERSION NEAR
      THE TOP OF THE HOUR CONTAINING PRELIMINARY DATA FROM ALBUQUERQUE
      AND OTHER STATIONS.  A FINAL VERSION WITH ADDITIONAL DATA IS
      ISSUED ABOUT 10 MINUTES AFTER THE HOUR.

NMZ501-503-504-510>518-202300-
NORTHWEST PLATEAU/NORTHCENTRAL MOUNTAINS

CITY           SKY/WX    TMP DP  RH WIND       PRES   REMARKS
FARMINGTON     FAIR      81  25  12 VRB6      29.94F
LOS ALAMOS     FAIR      77  15   9 SW8G17    30.10F
SANTA FE       FAIR      80  20  10 W14G26    30.05F
TAOS           FAIR      78  26  14 W10G26    30.09F
ANGEL FIRE     FAIR      69  27  21 W15G25    30.16F

$$
NMZ402-403-502-505>509-202300-
WESTCENTRAL MOUNTAINS/SOUTHWEST MOUNTAINS

CITY           SKY/WX    TMP DP  RH WIND       PRES   REMARKS
GALLUP         FAIR      79  23  12 W21G30    30.06F
GRANTS         FAIR      81  14   8 SW8G20    30.07F
SILVER CITY    FAIR      83  39  21 W16G22    30.06F

$$
NMZ407-409-411-412-202300-
SOUTHERN DESERTS

CITY           SKY/WX    TMP DP  RH WIND       PRES   REMARKS
DEMING         FAIR      89  47  23 W16G23    29.97F
LAS CRUCES     FAIR      89  41  18 W15G21    29.99F
HOLLOMAN AFB   FAIR      91  37  15 CALM        N/A
ALAMOGORDO     FAIR      90  37  15 SW5       29.96F
T OR C         FAIR      89  33  13 S14G23    29.95F

$$
NMZ519>523-202300-
CENTRAL VALLEYS/CENTRAL HIGHLANDS

CITY           SKY/WX    TMP DP  RH WIND       PRES   REMARKS
ALBUQUERQUE    FAIR      83  24  11 S6        29.99F
DOUBLE EAGLE   SUNNY     84  25  11 SW14      30.02F
MORIARTY ARPT  FAIR      83  24  11 W12G20    30.06F
CLINES CORNERS FAIR      78  20  11 W20G30    30.10F
BELEN          FAIR      87  24  10 SE13      29.97F
SOCORRO        FAIR      88  26  10 SE15      29.95F

$$
NMZ524>526-539-540-202300-
SOUTHCENTRAL MOUNTAINS

CITY           SKY/WX    TMP DP  RH WIND       PRES   REMARKS
RUIDOSO        FAIR      79  27  14 S12       30.13F

$$
NMZ527>531-202300-
NORTHEAST HIGHLANDS/NORTHEAST PLAINS

CITY           SKY/WX    TMP DP  RH WIND       PRES   REMARKS
LAS VEGAS      FAIR      78  24  13 SW24G32   30.04F
RATON          FAIR      75  32  20 S13G22    30.00F
CLAYTON        FAIR      75  36  24 SE15      29.97F

$$
NMZ532>537-202300-
EASTCENTRAL PLAINS

CITY           SKY/WX    TMP DP  RH WIND       PRES   REMARKS
SANTA ROSA     FAIR      90  27  10 SW15G28   29.91F
TUCUMCARI      FAIR      82  35  18 E7        29.91F
CANNON AFB     FAIR      87  37  17 CALM      29.94F
CLOVIS AIRPORT FAIR      87  41  19 S9        29.94F

$$
NMZ028-029-538-202300-
SOUTHEAST PLAINS

CITY           SKY/WX    TMP DP  RH WIND       PRES   REMARKS
ROSWELL        FAIR      94  37  13 SE12G17   29.87F
ARTESIA        FAIR      95  32  11 W10G20    29.85F
CARLSBAD       FAIR      96  34  11 W21       29.84F
HOBBS          SUNNY     95  37  13 SW12G18   29.89F


$$




USA.gov is the U.S. government's official web portal to all federal, state and local government web resources and services.